TimeEDT,TemperatureF,Dew PointF,Humidity,Sea Level PressureIn,VisibilityMPH,Wind Direction,Wind SpeedMPH,Gust SpeedMPH,PrecipitationIn,Events,Conditions,WindDirDegrees,DateUTC
12:55 AM,46.9,44.6,92,30.04,10.0,Calm,Calm,-,N/A,,Clear,0,2012-09-17 04:55:00
1:55 AM,45.7,44.1,94,30.05,10.0,Calm,Calm,-,N/A,,Clear,0,2012-09-17 05:55:00
2:55 AM,45.0,42.3,90,30.04,10.0,Calm,Calm,-,N/A,,Clear,0,2012-09-17 06:55:00
3:55 AM,43.5,41.9,94,30.05,10.0,Calm,Calm,-,N/A,,Clear,0,2012-09-17 07:55:00
4:55 AM,43.9,42.1,93,30.05,10.0,NNW,3.5,-,N/A,,Clear,340,2012-09-17 08:55:00
5:55 AM,42.1,39.9,92,30.07,10.0,WNW,4.6,-,N/A,,Partly Cloudy,290,2012-09-17 09:55:00
6:55 AM,42.4,40.6,93,30.09,10.0,WNW,3.5,-,N/A,,Mostly Cloudy,290,2012-09-17 10:55:00
7:55 AM,47.8,43.7,86,30.09,10.0,Calm,Calm,-,N/A,,Mostly Cloudy,0,2012-09-17 11:55:00
8:55 AM,52.3,46.0,79,30.10,10.0,Calm,Calm,-,N/A,,Mostly Cloudy,0,2012-09-17 12:55:00
9:55 AM,58.8,43.2,56,30.09,10.0,Calm,Calm,-,N/A,,Mostly Cloudy,0,2012-09-17 13:55:00
10:55 AM,64.8,43.9,47,30.09,10.0,Calm,Calm,-,N/A,,Partly Cloudy,0,2012-09-17 14:55:00
11:55 AM,67.6,45.0,44,30.08,10.0,Calm,Calm,-,N/A,,Partly Cloudy,0,2012-09-17 15:55:00
12:55 PM,70.7,45.5,40,30.07,10.0,South,4.6,-,N/A,,Partly Cloudy,170,2012-09-17 16:55:00
1:55 PM,69.8,48.0,46,30.05,10.0,ESE,8.1,-,N/A,,Partly Cloudy,110,2012-09-17 17:55:00
2:55 PM,70.0,48.9,47,30.04,10.0,SE,9.2,-,N/A,,Partly Cloudy,140,2012-09-17 18:55:00
3:55 PM,67.8,49.6,52,30.03,10.0,SE,10.4,-,N/A,,Partly Cloudy,130,2012-09-17 19:55:00
4:55 PM,67.8,51.4,56,30.03,10.0,SE,9.2,-,N/A,,Partly Cloudy,130,2012-09-17 20:55:00
5:55 PM,64.8,52.5,64,30.02,10.0,SE,8.1,-,N/A,,Partly Cloudy,140,2012-09-17 21:55:00
6:55 PM,60.3,52.9,77,30.03,10.0,SE,6.9,-,N/A,,Scattered Clouds,140,2012-09-17 22:55:00
7:55 PM,58.6,53.6,83,30.05,10.0,SE,5.8,-,N/A,,Mostly Cloudy,140,2012-09-17 23:55:00
8:55 PM,57.7,52.9,84,30.05,10.0,SSE,4.6,-,N/A,,Mostly Cloudy,150,2012-09-18 00:55:00
9:55 PM,58.1,53.6,85,30.05,10.0,Calm,Calm,-,N/A,,Mostly Cloudy,0,2012-09-18 01:55:00
10:55 PM,56.3,52.9,88,30.05,10.0,Calm,Calm,-,N/A,,Mostly Cloudy,0,2012-09-18 02:55:00
11:55 PM,55.2,52.3,90,30.04,10.0,Calm,Calm,-,N/A,,Mostly Cloudy,0,2012-09-18 03:55:00